Weather Service Report


841 
ASUS43 KIND 200609
RWRIN 

WEATHER ROUNDUP FOR INDIANA
NATIONAL WEATHER SERVICE INDIANAPOLIS IN
200 AM EDT SAT SEP 20 2014

NOTE: "FAIR" INDICATES FEW OR NO CLOUDS BELOW 12,000 FEET WITH NO
SIGNIFICANT WEATHER AND/OR OBSTRUCTIONS TO VISIBILITY.

* - STATION DOES NOT REPORT WEATHER SUCH AS PRECIPITATION OR FOG.

+ - STATION NOT QUALITY CONTROLLED BY THE NATIONAL WEATHER SERVICE.
    USE DATA WITH CAUTION...ESPECIALLY DEWPOINT AND RELATIVE
    HUMIDITY OBSERVATIONS.

INZ001>003-010>013-019-020-200700-
NORTHWEST INDIANA
  
CITY           SKY/WX    TMP DP  RH WIND       PRES   REMARKS
GARY /AIRPORT/ CLEAR     64  50  60 S7        29.94F                  
KNOX *+        CLEAR     56  48  75 S7        29.97F                  
LA PORTE +     CLEAR     56  48  74 S7        29.97F                  
6HR MIN TEMP:  56; 6HR MAX TEMP:  63;                                

MICHIGAN CITY+ CLEAR     61  46  59 S9        29.96F                  
MONTICELLO +   CLEAR     58  50  75 S6        30.00F                  
RENSSELAER +   CLEAR     59  54  82 S7        29.98F                  
VALPARAISO     CLEAR     58  50  75 S7        29.97F                  
6HR MIN TEMP:  56; 6HR MAX TEMP:  65;                                


$$

LMZ046-743>745-200700-
SOUTHERN LAKE MICHIGAN
  
STATION/POSITION TIME  TEMP WIND        PRES
                       AIR  DIR/SP/G
                 (UTC) (F)  (DEG/KT/KT) (MB)
MICHIGAN CITY    0600   62  150/ 13/ 17   N/A

$$

INZ004-005-014>016-021>024-200700-
NORTH CENTRAL INDIANA
  
CITY           SKY/WX    TMP DP  RH WIND       PRES   REMARKS
GOSHEN         CLEAR     58  49  72 S9        29.99F                  
6HR MIN TEMP:  56; 6HR MAX TEMP:  63;                                

LOGANSPORT +   CLEAR     50  45  81 S8        30.02F                  
PERU/GRISSOM   CLEAR     52  52 100 S5        30.02F                  
6HR MIN TEMP:  52; 6HR MAX TEMP:  63;                                

ROCHESTER +    CLEAR     59  50  72 S6        30.01F                  
SOUTH BEND     CLEAR     59  48  67 S8        29.98F                  
6HR MIN TEMP:  59; 6HR MAX TEMP:  66;                                

WARSAW +       CLEAR     55  48  76 CALM      30.01F                  

$$

INZ006>009-017-018-025>027-200700-
NORTHEAST INDIANA
  
CITY           SKY/WX    TMP DP  RH WIND       PRES   REMARKS
ANGOLA *+      CLEAR     52  46  82 S3        30.01F                  
AUBURN +       CLEAR     52  45  76 CALM      30.03S                  
FORT WAYNE     PTCLDY    53  47  79 S6        30.03F                  
6HR MIN TEMP:  51; 6HR MAX TEMP:  62;                                

HUNTINGTON +   CLEAR     54  49  85 S3        30.02F                  
6HR MIN TEMP:  51; 6HR MAX TEMP:  59;                                


$$

INZ028-029-035-036-043>045-051>053-200700-
WEST CENTRAL INDIANA
  
CITY           SKY/WX    TMP DP  RH WIND       PRES   REMARKS
GREENCASTLE +  CLEAR     54  52  94 CALM      30.05S                  
LAFAYETTE      CLEAR     56  50  80 CALM      30.01F                  
6HR MIN TEMP:  51; 6HR MAX TEMP:  65;                                

TERRE HAUTE    CLEAR     53  50  89 CALM      30.03F                  
6HR MIN TEMP:  51; 6HR MAX TEMP:  66;                                


$$

INZ030>032-037>040-046>048-054>057-064-065-200700-
CENTRAL INDIANA
  
CITY           SKY/WX    TMP DP  RH WIND       PRES   REMARKS
CP ATTERBURY + FOG       50  48  93 CALM      30.06F VSB 1            
FRANKFORT +    CLEAR     53  53 100 CALM      30.04F                  
INDIANAPOLIS   PTCLDY    58  51  78 CALM      30.04F                  
6HR MIN TEMP:  57; 6HR MAX TEMP:  66;                                

-EAGLE CREEK   CLEAR     54  50  86 CALM      30.04F                  
6HR MIN TEMP:  54; 6HR MAX TEMP:  67;                                

KOKOMO *+      CLEAR     54  46  76 S7        30.03F                  
MARION +       CLEAR     52  48  85 S5        30.03F                  
MT COMFORT *+  CLEAR     55  48  76 S6        30.05F                  
SHELBYVILLE    CLEAR     55  50  83 S6        30.05F                  
6HR MIN TEMP:  54; 6HR MAX TEMP:  66;                                

ZIONSVILLE +   CLEAR     49  46  90 CALM      30.05F FOG              
6HR MIN TEMP:  48; 6HR MAX TEMP:  61;                                


$$

INZ033-034-041-042-049-050-058-059-200700-
EAST CENTRAL INDIANA
  
CITY           SKY/WX    TMP DP  RH WIND       PRES   REMARKS
MUNCIE         CLEAR     57  48  72 S6        30.04F                  
6HR MIN TEMP:  54; 6HR MAX TEMP:  63;                                


$$

INZ060-061-067>069-081>083-085>088-200700-
SOUTHWEST INDIANA
  
CITY           SKY/WX    TMP DP  RH WIND       PRES   REMARKS
EVANSVILLE     CLEAR     60  57  89 CALM      30.05F                  
6HR MIN TEMP:  60; 6HR MAX TEMP:  73;                                

WASHINGTON +   CLEAR     57  56  94 S5        30.03F                  
6HR MIN TEMP:  54; 6HR MAX TEMP:  62;                                


$$

INZ062-063-066-070>080-084-089>092-200700-
SOUTH CENTRAL AND SOUTHEAST INDIANA
  
CITY           SKY/WX    TMP DP  RH WIND       PRES   REMARKS
BLOOMINGTON    CLEAR     57  52  83 S3        30.05F                  
6HR MIN TEMP:  52; 6HR MAX TEMP:  60;                                


$$


Return to Home page


Western Regional Climate Center, wrcc@dri.edu